Hourly Data Report for June 28, 2021

VINELAND STATION RCS
ONTARIO
Current Station Operator: ECCC - MSC

43°11'00.000" N
79°24'00.000" W
79.20 m
6139148
71171
XVN

Download Data

Hourly Data (June 2021)
Hourly Data Report for June 28, 2021
TIME
LST
Temp Definition
°C
Dew Point Definition
°C
Rel Hum Definition
%
Precip. Amount Definition
mm

Wind Dir Definition
10's deg

Wind Spd Definition
km/h
Visibility Definition
km
Stn Press Definition
kPa
Hmdx Definition


Wind Chill Definition


Weather Definition


00:00 25.0 20.5 76 0.0 22 17   100.67 33   LegendNANA
01:00 25.5 20.1 72 0.0 22 18   100.70 33   LegendNANA
02:00 25.2 20.0 73 0.0 21 15   100.72 33   LegendNANA
03:00 24.9 20.1 75 0.0 22 17   100.74 33   LegendNANA
04:00 24.1 20.2 79 0.0 22 12   100.79 32   LegendNANA
05:00 23.9 20.4 81 0.0 21 15   100.83 32   LegendNANA
06:00 24.2 20.5 80 0.0 21 17   100.90 32   LegendNANA
07:00 24.9 21.1 80 0.0 22 16   100.94 33   LegendNANA
08:00 26.1 22.3 79 0.0 21 14   100.97 36   LegendNANA
09:00 27.7 22.7 74 0.0 21 19   100.97 38   LegendNANA
10:00 29.1 22.9 69 0.0 24 17   101.00 39   LegendNANA
11:00 30.0 22.4 64 0.0 22 16   101.01 40   LegendNANA
12:00 29.7 22.6 66 0.0 23 17   101.00 40   LegendNANA
13:00 30.7 22.6 62 0.0 22 17   101.00 41   LegendNANA
14:00 30.8 22.9 63 0.0 22 16   100.98 41   LegendNANA
15:00 31.9 22.4 57 0.0 24 13   100.96 42   LegendNANA
16:00 30.9 23.3 64 0.0 21 14   100.95 41   LegendNANA
17:00 30.8 23.0 63 0.0 22 14   100.93 41   LegendNANA
18:00 27.8 21.7 69 0.0 5 4   100.96 37   LegendNANA
19:00 27.8 22.0 71 0.0 19 6   100.97 37   LegendNANA
20:00 26.7 22.2 76 0.0 21 5   101.02 36   LegendNANA
21:00 24.9 21.7 82 0.0 20 7   101.07 34   LegendNANA
22:00 24.6 21.5 83 0.0 22 8   101.13 33   LegendNANA
23:00 23.4 20.9 86 0.0 19 8   101.14 32   LegendNANA

Notes on Data Quality.

Legend

  • E = Estimated
  • M = Missing
  • NA = Not Available*
  • [empty] = Indicates an unobserved value
Date modified: